Weather Roundup
Issued by NWS Springfield, MO

Home | Current Version | Previous Version | Text Only | Print | Product List | Glossary On
Versions: 1 2 3 4 5 6 7 8 9 10 11 12 13 14 15 16 17 18 19 20 21 22 23 24 25 26 27 28 29 30 31 32 33 34 35 36 37 38 39 40 41 42 43 44 45 46 47 48 49 50
000
NZUS99 KSGF 230159
HRRSGF

HOURLY WEATHER
NATIONAL WEATHER SERVICE SPRINGFIELD MO
900 PM CDT FRI MAY 22 2015

......SGF CWA......

CITY           SKY/WX    TMP DP  RH WIND       PRES   REMARKS
SPRINGFIELD    CLOUDY    62  47  57 SE8       30.21R
JOPLIN         CLOUDY    62  51  67 E6        30.19R
WEST PLAINS    CLOUDY    60  48  64 SE5       30.25R
ROLLA          CLOUDY    62  52  69 E6        30.22S
OSAGE BEACH    CLOUDY    63  54  72 CALM      30.22S
BRANSON        MOCLDY    59  48  67 SE10G16   30.22R

......SURROUNDING SGF CWA......

CITY           SKY/WX    TMP DP  RH WIND       PRES   REMARKS
CHANUTE        CLOUDY    61  51  70 E3        30.17S
PARSONS        CLOUDY    62  53  72 MISG      30.18S
COFFEYVILLE    CLOUDY    62  56  80 SE3       30.16S
EMPORIA        CLOUDY    59  49  69 SE7       30.17R
SILOAM SPRINGS CLOUDY    61  48  63 CALM      30.20F
HARRISON AR    MOCLDY    59  50  72 SE8       30.21S
NEAR YELLVILLE CLOUDY    63  48  59 SE6       30.21S

......KANSAS AND MISSOURI......

CITY           SKY/WX    TMP DP  RH WIND       PRES   REMARKS
KANSAS CTY INT CLOUDY    61  50  67 SE8       30.20S
DOWNTOWN KC    CLOUDY    64  49  57 E7        30.19S
COLUMBIA       CLOUDY    64  54  69 NE3       30.24R
SEDALIA        CLOUDY    64  53  67 E5        30.23S
ST JOSEPH      CLOUDY    63  49  60 SE10      30.20R
ST LOUIS       CLOUDY    69  49  48 NW5       30.25R
SPIRIT OF STL  CLOUDY    63  57  81 CALM      30.24R
KIRKSVILLE     CLOUDY    59  56  89 CALM      30.23F
WICHITA        DRIZZLE   56  54  93 SE10      30.15R FOG
TOPEKA         CLOUDY    60  50  69 SE6       30.19R
OLATHE         CLOUDY    60  51  72 E6        30.19R

......TENNESSEE......

CITY           SKY/WX    TMP DP  RH WIND       PRES   REMARKS
MEMPHIS        MOCLDY    68  49  50 E7        30.23R
NASHVILLE      MOCLDY    67  46  47 E5        30.27S

......ARKANSAS.......

CITY           SKY/WX    TMP DP  RH WIND       PRES   REMARKS
FAYETTEVILLE   MOCLDY    58  51  78 E3        30.19S
FT SMITH       CLOUDY    60  56  86 E10       30.16F
LITTLE ROCK    CLOUDY    66  53  63 E6        30.21F

......OKLAHOMA.......

CITY           SKY/WX    TMP DP  RH WIND       PRES   REMARKS
TULSA          CLOUDY    61  54  77 SE6       30.15S
PONCA CITY     LGT RAIN  56  55  97 SE12      30.15R FOG
MCALESTER      LGT RAIN  60  58  92 CALM      30.16R FOG
OKLAHOMA CITY  DRIZZLE   55  54  96 SE8       30.14R

......IOWA............

CITY           SKY/WX    TMP DP  RH WIND       PRES   REMARKS
DES MOINES     CLOUDY    65  45  48 SW7       30.21R
QUAD CITIES    CLOUDY    64  48  56 CALM      30.20R

......ILLINOIS........

CITY           SKY/WX    TMP DP  RH WIND       PRES   REMARKS
QUINCY         CLOUDY    64  53  67 W5        30.25R
CHICAGO        CLOUDY    53  28  38 E7        30.27R




USA.gov is the U.S. government's official web portal to all federal, state and local government web resources and services.